Location: Oshawa
(43.9000°N, 78.8670°W)
Time: 00:12:15
(UTC-04:00)

Cosmos 1707 Rocket - Visible Passes

Search period start: 05 May 2015 00:00
Search period end: 15 May 2015 00:00
Orbit: 605 x 633 km, 82.5° (Epoch: 04 May)

Date Brightness Start Highest point End Pass type
(mag) Time Alt. Az. Time Alt. Az. Time Alt. Az.
05 May 5.4 03:28:22 10° NNE 03:32:15 30° ENE 03:36:12 10° SE visible
05 May 4.7 05:06:24 10° NNW 05:10:04 25° W 05:13:40 10° SW visible
06 May 4.2 03:45:31 10° N 03:49:52 54° ENE 03:53:34 14° SSE visible
06 May 5.4 05:24:54 10° NW 05:27:20 14° W 05:29:35 10° WSW visible
07 May 6.6 02:27:58 10° NE 02:28:45 10° ENE 02:29:45 10° ENE visible
07 May 3.5 04:02:54 10° N 04:07:21 81° W 04:10:20 21° S visible
08 May 6.0 02:43:32 10° NNE 02:46:35 18° ENE 02:49:47 10° ESE visible
08 May 4.0 04:20:32 10° NNW 04:24:46 43° W 04:27:10 22° SSW visible
09 May 5.2 03:00:20 10° N 03:04:19 32° ENE 03:06:56 18° SE visible
09 May 4.8 04:38:29 10° NW 04:42:05 24° W 04:44:03 17° SW visible
10 May 4.0 03:17:30 10° N 03:21:54 58° E 03:23:52 31° SE visible
10 May 5.5 04:57:05 10° NW 04:59:20 13° W 05:01:00 11° WSW visible
11 May 6.4 01:59:32 10° NE 02:00:49 11° ENE 02:02:21 10° E visible
11 May 3.5 03:34:55 10° NNW 03:39:23 76° W 03:40:51 41° S visible
12 May 5.8 02:15:26 10° NNE 02:18:39 20° ENE 02:20:44 15° ESE visible
12 May 4.1 03:52:35 10° NNW 03:56:46 40° W 03:57:52 34° SW visible
13 May 5.0 02:32:18 10° N 02:36:21 34° ENE 02:37:47 27° ESE visible
13 May 4.9 04:10:34 10° NW 04:14:05 23° W 04:14:56 21° WSW visible
14 May 3.9 02:49:29 10° N 02:53:56 62° E 02:54:52 49° SE visible
14 May 5.6 04:29:18 10° WNW 04:31:20 13° W 04:32:01 12° W visible
